Domov               UVHVVR             MKGP            O straneh              
ZDRAVSTVENO VARSTVO RASTLIN
  MREŽA AGROMET. POSTAJ
 ► PROGNOSTIČNA OBVESTILA
AGROMETEOROLOŠKI PODATKI -
ARSO
OBVLADOVANJE TVEGANJ ZARADI
NEUGODNIH VREMENSKIH RAZMER
  ► NARAVNE NESREČE
  ► SUŠA/MOČA
  ► NAMAKANJE
  ► ŽLED (gozdarstvo)
KARTOGRAFSKI PRIKAZI
SPLETNE POVEZAVE
PROJEKTI IN PUBLIKACIJE

AGROMETEOROLOŠKA MREŽA: VREMENSKE POSTAJE IN FENOLOŠKA OPAZOVANJA

Pregled podatkov za lokacijo Maribor - BTŠ, meteorološka postaja 35810

Pregled senzorjev na lokaciji

ID Ime Zadnja
vrednost
Datum
zadnje
spremembe
Tip
senzorja
1721 Temperatura 2 m ( °C) 12,21 °C 23.8.2017 05:30 Generic -40 - +60 °C
1722 Relativna vlaga 2 m (% RH) 80,29 % RH 23.8.2017 05:30 Generic 0 - 100 %
1723 Padavine 0.2 mm (mm) 0 mm 23.8.2017 05:30 Generic 0.2 mm
1724 Omočenost lista (U) 0 U 23.8.2017 05:30 A730WET

Pregled podatkov zadnjih 24 ur

Zap.
št.
Datum in čas Maribor - BTŠ
Omočenost
lista
Padavine
0.2
mm
Relativna
vlaga
2
m
Temperatura
2
m
0 23.8.2017 04:30 0 0 80,29 12,21
1 23.8.2017 04:00 0 0 82,47 11,84
2 23.8.2017 03:30 0 0 82,3 12,14
3 23.8.2017 03:00 0 0 83,93 11,92
4 23.8.2017 02:30 0 0 88,45 11,26
5 23.8.2017 02:00 0 0 89,99 10,99
6 23.8.2017 01:30 0 0 90,11 11,23
7 23.8.2017 01:00 0 0 97,19 10,35
8 23.8.2017 00:30 0 0 99,46 10,31
9 23.8.2017 00:00 0 0 92,97 10,84
10 22.8.2017 23:30 0 0 88,96 11,21
11 22.8.2017 23:00 0 0 94,99 10,84
12 22.8.2017 22:30 0 0 92,45 11,18
13 22.8.2017 22:00 0 0 91,18 11,53
14 22.8.2017 21:30 0 0 87,96 12,19
15 22.8.2017 21:00 0 0 80,78 13,53
16 22.8.2017 20:30 0 0 73,63 14,95
17 22.8.2017 20:00 0 0 61 17,09
18 22.8.2017 19:30 0 0 54,65 18,34
19 22.8.2017 19:00 0 0 48,01 19,58
20 22.8.2017 18:30 0 0 45,76 20,32
21 22.8.2017 18:00 0 0 42,15 21,37
22 22.8.2017 17:30 0 0 40,17 21,93
23 22.8.2017 17:00 0 0 39,02 22,42
24 22.8.2017 16:30 0 0 38,53 22,91
25 22.8.2017 16:00 0 0 37,8 23,08
26 22.8.2017 15:30 0 0 37,68 23,66
27 22.8.2017 15:00 0 0 36,07 23,22
28 22.8.2017 14:30 0 0 36,83 23,17
29 22.8.2017 14:00 0 0 36,51 22,83
30 22.8.2017 13:30 0 0 37,07 22,71
31 22.8.2017 13:00 0 0 37,68 22
32 22.8.2017 12:30 0 0 37,9 21,88
33 22.8.2017 12:00 0 0 38 21,64
34 22.8.2017 11:30 0 0 40,05 22,08
35 22.8.2017 11:00 0 0 41,83 21,39
36 22.8.2017 10:30 0 0 42,98 20,95
37 22.8.2017 10:00 0 0 42,83 20,34
38 22.8.2017 09:30 0 0 53,16 18,36
39 22.8.2017 09:00 0 0 58,14 16,56
40 22.8.2017 08:30 0 0 62,81 14,95
41 22.8.2017 08:00 0 0 67,74 13,43
42 22.8.2017 07:30 0 0 71,53 12,19
43 22.8.2017 07:00 0 0 74,19 11,28
44 22.8.2017 06:30 0 0 75,97 10,65
© 2011 Ministrstvo za kmetijstvo, gozdarstvo in prehrano. Vse pravice pridržane.